KUIPER-00248

导读 | 豆包AI

KUIPER-00248是美国亚马逊“柯伊伯项目”(Project Kuiper)星座中的一颗低轨互联网通信卫星,于2025年12月15日发射升空。该项目计划在近地轨道部署3236颗卫星,通过分阶段组网实现全球覆盖,旨在为全球提供高速低延迟的宽带互联网接入服务,填补偏远地区网络覆盖空白,Kuipers星座采用先进通信技术,能够灵活调整容量满足不同区域客户需求,依托亚马逊基础设施保障网络安全高效运行,是全球低轨卫星星座建设的重要组成部分。

基本信息
目录编号:
67153
目录名称:
KUIPER-00248
国际标识:
2025-301W
轨道中心:
EARTH
卫星名称:
KUIPER-00248
卫星全名:
KUIPER-00248
卫星状态:
在轨 (已飞行78 天)
发射日期:
2025-12-15 UTC
国别 :
美国 (US)
星等 :
--
轨道信息
数据来源 国际轨道数据
星历时间: 2026-03-02T16:37:05+0800
19小时前
查看轨道信息
半长轴: 6832.773km
偏心率: 0.0011469
轨道倾角: 51.868°
近地点辐角 17.381°
升交点赤经 101.070°
平近点角 342.756°
近地点: 446.799km
远地点: 462.473km
周期: 93.682分钟
每日圈数: 15.371184
详细信息
使用方式:
暂无
2D轨道图
3D轨道图
轨道高度分析图
轨道倾角分析图
轨道综合分析图
查看轨道综合分析图